Date,TemperatureHighF,TemperatureAvgF,TemperatureLowF,DewpointHighF,DewpointAvgF,DewpointLowF,HumidityHigh,HumidityAvg,HumidityLow,PressureMaxIn,PressureMinIn,WindSpeedMaxMPH,WindSpeedAvgMPH,GustSpeedMaxMPH,PrecipitationSumIn
2012-11-25,44.2,30.3,26.2,25.1,19.2,-99.9,91,72,46,29.98,29.93,2,-38,0,0.00
2012-11-26,70.9,45.7,24.8,46.6,33.5,22.7,99,69,23,30.01,29.83,5,1,0,0.30
2012-11-27,48.6,45.3,39.4,46.8,42.1,35.2,99,89,80,30.08,29.90,6,2,0,0.12
2012-11-28,57.9,39.4,25.3,35.5,30.9,24.6,99,75,32,30.20,30.06,6,1,0,0.02
2012-11-29,65.7,37.0,22.1,37.6,29.5,20.9,99,80,32,30.14,29.96,5,1,0,0.00
2012-11-30,66.7,39.1,24.1,46.4,34.8,23.4,99,88,48,30.05,29.87,6,1,0,0.00
2012-12-1,72.7,48.4,35.4,51.6,42.1,35.1,99,83,46,30.02,29.86,7,1,0,0.00
2012-12-2,75.6,56.8,34.2,54.4,47.6,33.9,99,74,46,29.99,29.82,9,2,0,0.01
2012-12-3,77.4,56.0,40.1,53.7,47.9,39.8,99,78,43,29.94,29.81,7,1,0,0.01
2012-12-4,70.0,58.5,42.3,56.2,50.6,42.0,99,77,53,29.94,29.78,7,-406,0,0.00
2012-12-5,66.9,54.9,33.6,56.9,43.6,28.9,96,68,31,29.97,29.80,7,-728,0,0.00
2012-12-6,55.0,47.1,33.1,46.1,39.6,29.2,99,76,62,29.88,29.75,3,-703,0,0.00
2012-12-7,66.9,52.0,36.9,54.0,46.0,36.0,99,81,58,29.81,29.60,5,-578,0,0.00
2012-12-8,70.9,57.0,50.7,58.4,51.0,-99.9,98,83,59,29.75,29.61,10,-329,0,0.00
2012-12-9,67.8,62.7,54.7,59.9,58.0,53.3,95,85,72,29.73,29.60,7,3,0,0.00
2012-12-10,62.6,54.0,38.8,59.8,52.0,33.8,99,93,79,29.69,29.38,7,2,0,1.12
2012-12-11,42.8,36.4,30.4,34.1,30.7,27.9,96,80,64,30.00,29.70,6,2,0,0.00
2012-12-12,48.9,35.1,26.4,29.7,27.5,23.6,99,78,38,30.09,30.00,9,1,0,0.00
2012-12-13,61.9,37.8,21.7,39.2,30.8,20.9,99,80,42,30.16,30.02,5,1,0,0.00
2012-12-14,63.9,37.6,23.7,42.0,32.2,22.7,99,85,41,30.16,29.95,4,1,0,0.00
2012-12-15,64.2,48.1,32.9,51.2,41.0,32.7,99,79,48,29.96,29.71,14,2,0,0.09
2012-12-16,57.7,53.6,50.2,57.1,53.1,49.9,99,98,94,29.75,29.56,8,2,0,1.29
2012-12-17,58.1,52.6,45.0,57.1,52.0,44.7,99,98,94,29.57,29.37,6,2,0,0.46
2012-12-18,63.7,46.4,30.7,46.1,38.7,30.2,99,78,38,29.77,29.47,6,2,0,0.00
2012-12-19,72.7,44.2,28.6,46.7,37.9,28.4,99,83,39,29.89,29.77,4,1,0,0.01
2012-12-20,53.4,43.5,35.2,51.7,40.0,27.8,99,89,60,29.82,29.34,10,3,0,1.52
2012-12-21,49.3,37.8,31.3,30.0,23.0,15.7,70,56,40,30.02,29.62,10,5,0,0.00
2012-12-22,54.1,32.4,19.0,24.1,20.2,14.0,95,65,28,30.16,30.00,5,1,0,0.00
2012-12-23,52.2,37.3,19.2,40.9,31.9,18.5,99,84,41,30.02,29.83,6,1,0,0.32
2012-12-24,52.9,45.9,41.2,51.2,45.5,40.9,99,99,94,29.83,29.63,4,1,0,0.78
2012-12-25,49.5,46.8,44.1,47.0,45.5,43.8,99,95,89,29.86,29.58,9,2,0,0.59
2012-12-26,50.7,42.7,34.2,49.5,39.6,29.6,99,89,75,29.84,29.21,14,4,0,0.72
2012-12-27,37.8,34.6,32.9,30.8,29.5,28.5,88,82,71,30.00,29.85,6,2,0,0.03
2012-12-28,42.8,36.9,29.7,38.2,32.9,27.8,99,86,70,29.97,29.63,6,1,0,0.14
2012-12-29,41.0,37.2,32.7,40.3,33.9,24.0,99,88,70,30.12,29.58,8,3,0,0.13
2012-12-30,48.6,32.9,23.5,26.7,23.3,20.2,98,70,37,30.36,30.13,6,2,0,0.03
2012-12-31,45.1,33.7,21.9,34.7,28.3,21.6,99,83,54,30.26,29.94,5,1,0,0.06
2013-1-1,46.2,41.8,37.6,45.9,41.2,34.1,99,98,87,29.95,29.81,6,1,0,1.23